Regional Weather Roundup
Issued by NWS

Home | Current Version | Previous Version | Graphics & Text | Print | Product List | Glossary On
Versions: 1 2 3 4 5 6 7 8 9 10 11 12 13 14 15 16 17 18 19 20 21 22 23 24 25 26 27 28
000
ASUS45 KSLC 011910
RWRUT

UTAH REGIONAL WEATHER ROUNDUP
NATIONAL WEATHER SERVICE SALT LAKE CITY UT
1200 PM MST THU DEC 01 2016

UTZ001>011-023>025-012000-

NORTHERN UTAH

CITY           SKY/WX    TMP DP  RH WIND       PRES   REMARKS
BRIGHAM CITY     N/A     33  29  85 CALM      30.09F
HILL AFB       PTSUNNY   31  27  85 CALM      30.07S
LOGAN          CLOUDY    34  25  69 W9        30.07F WCI  27
OGDEN          CLOUDY    32  28  85 VRB6      30.07F WCI  26
SALT LAKE CITY FLURRIES  32  28  85 CALM      30.08F
TOOELE VALLEY  CLOUDY    34  28  80 CALM      30.09F
WENDOVER       SUNNY     37  16  41 N6        30.10F WCI  33
HEBER CITY     LGT SNOW  28  21  74 CALM      30.02F
WEST JORDAN    CLOUDY    30  30 100 CALM      30.08F

$$

UTZ011>015-024>027-012000-

CENTRAL/NORTHEAST UTAH

CITY           SKY/WX    TMP DP  RH WIND       PRES   REMARKS
PROVO AIRPORT  LGT SNOW  30  28  93 CALM      30.09F FOG
MOAB/CANYONLAN CLOUDY    38  15  39 NE5       30.01F WCI  34
DELTA          CLOUDY    34  27  75 N10       30.07F WCI  26
PRICE          CLOUDY    31  12  45 S3        29.99F
RICHFIELD      CLOUDY    34  18  51 N3        30.03F
ROOSEVELT      CLOUDY    32  19  59 CALM      30.05F
VERNAL         CLOUDY    30  20  66 E3        30.03F

$$

UTZ013>016-019>022-027-012000-

SOUTHERN UTAH

CITY           SKY/WX    TMP DP  RH WIND       PRES   REMARKS
BRYCE CANYON   NOT AVBL
CEDAR CITY     SUNNY     37  16  42 N7        30.00F WCI  32
MILFORD        CLOUDY    37  19  48 N15       30.04F WCI  28
ST GEORGE      CLOUDY    39  18  41 CALM      30.06F
HANKSVILLE     SUNNY     37  18  44 CALM      30.05F
KANAB          SUNNY     41  14  33 S3        30.02F
BLANDING       CLOUDY    34  17  48 CALM      30.08F

$$

REGIONAL REPORTS     COLORADO/ARIZONA

CITY           SKY/WX    TMP DP  RH WIND       PRES   REMARKS
CRAIG, CO      CLOUDY    29  16  58 CALM      29.99F
GRAND JUNCTION CLOUDY    36  14  40 W3        30.02F
RIFLE, CO      CLOUDY    31  16  54 CALM      30.02F
MONTROSE, CO   SUNNY     33  13  43 NE7       30.01F WCI  27
CORTEZ, CO     SUNNY     32  16  51 SW6       30.01F WCI  26
COLORADO CITY    N/A     43  19  39 CALM      30.02F
PAGE, AZ       SUNNY     39  13  34 NW6       30.01F WCI  35
GRAND CANYON   SUNNY     38  14  37 CALM      29.97F
KINGMAN, AZ    SUNNY     48  13  24 MISG      30.00F
FLAGSTAFF, AZ  PTSUNNY   35  15  44 CALM      29.96F

$$

REGIONAL REPORTS    NEVADA/IDAHO/WYOMING

CITY           SKY/WX    TMP DP  RH WIND       PRES   REMARKS
LAS VEGAS, NV  MOSUNNY   52  17  25 CALM      30.03F
ELY, NY        PTSUNNY   31  22  69 NE7       30.05F WCI  24
ELKO, NV       PTSUNNY   34  20  56 S8        30.11F WCI  27
POCATELLO, ID  PTSUNNY   29  23  78 SW20      30.09F WCI  16
BURLEY, ID     CLOUDY    32  26  78 W9        30.09F WCI  24
FORT BRIDGER,  CLOUDY    29  19  68 W14       30.00S WCI  18
EVANSTON, WY   CLOUDY    26  18  71 SW10      29.97F WCI  16
ROCK SPRINGS,  CLOUDY    24  18  77 W14       29.96F WCI  12

$$




USA.gov is the U.S. government's official web portal to all federal, state and local government web resources and services.